TimeCDT,TemperatureF,Dew PointF,Humidity,Sea Level PressureIn,VisibilityMPH,Wind Direction,Wind SpeedMPH,Gust SpeedMPH,PrecipitationIn,Events,Conditions,WindDirDegrees,DateUTC
12:52 AM,57.0,44.1,62,29.97,10.0,Calm,Calm,-,N/A,,Scattered Clouds,0,2013-05-17 05:52:00
1:52 AM,57.0,44.1,62,29.96,10.0,ENE,4.6,-,N/A,,Mostly Cloudy,60,2013-05-17 06:52:00
2:52 AM,57.9,43.0,58,29.96,10.0,Calm,Calm,-,N/A,,Overcast,0,2013-05-17 07:52:00
3:52 AM,57.0,43.0,59,29.96,10.0,NE,4.6,-,N/A,,Mostly Cloudy,40,2013-05-17 08:52:00
4:52 AM,57.0,43.0,59,29.96,10.0,NE,3.5,-,N/A,,Mostly Cloudy,40,2013-05-17 09:52:00
5:52 AM,57.0,45.0,64,29.98,10.0,ENE,4.6,-,N/A,,Scattered Clouds,70,2013-05-17 10:52:00
6:52 AM,57.9,46.0,65,30.00,10.0,ENE,4.6,-,N/A,,Scattered Clouds,70,2013-05-17 11:52:00
7:52 AM,64.0,48.0,56,30.00,10.0,ESE,4.6,-,N/A,,Scattered Clouds,110,2013-05-17 12:52:00
8:52 AM,69.1,53.1,57,30.01,10.0,Calm,Calm,-,N/A,,Scattered Clouds,0,2013-05-17 13:52:00
9:52 AM,72.0,57.0,59,30.01,10.0,Calm,Calm,-,N/A,,Scattered Clouds,0,2013-05-17 14:52:00
10:52 AM,73.0,57.0,57,30.02,10.0,ESE,3.5,-,N/A,,Scattered Clouds,120,2013-05-17 15:52:00
11:52 AM,75.0,57.0,53,30.02,10.0,East,4.6,-,N/A,,Scattered Clouds,90,2013-05-17 16:52:00
12:52 PM,75.9,57.9,54,30.01,10.0,NE,6.9,-,N/A,,Scattered Clouds,50,2013-05-17 17:52:00
1:52 PM,75.9,57.0,52,29.99,10.0,ENE,12.7,-,N/A,,Scattered Clouds,70,2013-05-17 18:52:00
2:52 PM,70.0,53.1,55,30.00,10.0,NE,18.4,-,N/A,,Scattered Clouds,50,2013-05-17 19:52:00
3:52 PM,69.1,52.0,54,29.99,10.0,ENE,13.8,-,N/A,,Mostly Cloudy,60,2013-05-17 20:52:00
4:52 PM,69.1,53.1,57,30.01,10.0,East,17.3,-,N/A,,Mostly Cloudy,100,2013-05-17 21:52:00
5:52 PM,64.9,55.9,73,30.01,9.0,East,10.4,-,N/A,,Overcast,80,2013-05-17 22:52:00
6:52 PM,64.0,55.0,73,30.01,10.0,ENE,15.0,18.4,N/A,,Overcast,60,2013-05-17 23:52:00
7:52 PM,62.1,52.0,70,30.02,10.0,NE,10.4,-,N/A,,Mostly Cloudy,50,2013-05-18 00:52:00
8:52 PM,61.0,48.9,64,30.03,10.0,ENE,10.4,-,N/A,,Overcast,60,2013-05-18 01:52:00
9:52 PM,61.0,48.0,62,30.03,10.0,ENE,8.1,-,N/A,,Overcast,60,2013-05-18 02:52:00
10:52 PM,61.0,48.9,64,30.02,10.0,East,5.8,-,N/A,,Mostly Cloudy,100,2013-05-18 03:52:00
11:52 PM,57.9,50.0,75,30.01,10.0,East,4.6,-,N/A,,Clear,80,2013-05-18 04:52:00